EHI
0 0 0 0 0 0 0 0 0 0 0 0 0 0 0 0 0 0 0 0 0 0 0 0 0 0 0 0 0 0 0 0 0 0 0 0 0 0 0 0 0 0 0
0 0 0 0 0 0 0 0 0 0 0 0 0 0 0 0 0 0 0 0 0 0 0 0 0 0 0 0 0 0 0 0 0 0 0 0 0 0 0 0 0 0 0
0 0 0 0 0 0 0 0 0 0 0 0 0 0 0 0 0 0 0 0 0 0 0 0 0 0 0 0 0 0 0 0 0 0 0 0 0 0 0 0 0 0 0
0 0 0 0 0 0 0 0 0 0 0 0 0 0 0 0 0 0 0 0 0 0 0 0 0 0 0 0 0 0 0 0 0 0 0 0 0 0 0 0 0 0 0
0 0 0 0 0 0 0 0 0 0 0 0 0 0 0 0 0 0 0 0 0 0 0 0 0 0 0 0 0 0 0 0 0 0 0 0 0 0 0 0 0 0 0
0 0 0 0 0 0 0 0 0 0 0 0 0 0 0 0 0 0 0 0 0 0 0 0 0 0 0 0 0 0 0 0 0 0 0 0 0 0 0 0 0 0 0
0 0 0 0 0 0 0 0 0 0 0 0 0 0 0 0 0 0 0 0 0 0 0 0 0 0 0 0 0 0 0 0 0 0 0 0 0 0 0 0 0 0 0
0 0 0 0 0 0 0 0 0 0 0 0 0 0 0 0 0 0 0 0 0 0 0 0 0 0 0 0 0 0 0 0 0 0 0 0 0 0 0 0 0 0 0
0 0 0 0 0 0 0 0 0 0 0 0 0 0 0 0 0 0 0 0 0 0 0 0 0 0 0 0 0 0 0 0 0 0 0 0 0 0 0 0 0 0 0
0 0 0 0 0 0 0 0 0 0 0 0 0 0 0 0 0 0 0 0 0 0 0 0 0 0 0 0 0 0 0 0 0 0 0 0 0 0 0 0 0 0 0
0 0 0 0 0 0 0 0 0 0 0 0 0 0 0 0 0 0 0 0 0 0 0 0 0 0 0 0 0 0 0 0 0 0 0 0 0 0 0 0 0 0 0
0 0 0 0 0 0 0 0 0 0 0 0 0 0 0 0 0 0 0 0 0 0 0 0 0 0 0 0 0 0 0 0 0 0 0 0 0 0 0 0 0 0 0
0 0 0 0 0 0 0 0 0 0 0 0 0 0 0 0 0 0 0 0 0 0 0 0 0 0 0 0 0 0 0 0 0 0 0 0 0 0 0 0 0 0 0
0 0 0 0 0 0 0 0 0 0 0 0 0 0 0 0 0 0 0 0 0 0 0 0 0 0 0 0 0 0 0 0 0 0 0 0 0 0 0 0 0 0 0
0 0 0 0 0 0 0 0 0 0 0 0 0 0 0 0 0 0 0 0 0 0 0 0 0 0 0 0 0 0 0 0 0 0 0 0 0 0 0 0 0 0 0
0 0 0 0 0 0 0 0 0 0 0 0 0 0 0 0 0 0 0 0 0 0 0 0 0 0 0 0 0 0 0 0 0 0 0 0 0 0 0 0 0 0 0
0 0 0 0 0 0 0 0 0 0 0 0 0 0 0 0 0 0 0 0 0 0 0 0 0 0 0 0 0 0 0 0 0 0 0 0 0 0 0 0 0 0 0
0 0 0 0 0 0 0 0 0 0 0 0 0 0 0 0 0 0 0 0 0 0 0 0 0 0 0 0 0 0 0 0 0 0 0 0 0 0 0 0 0 0 0
0 0 0 0 0 0 0 0 0 0 0 0 0 0 0 0 0 0 0 0 0 0 0 0 0 0 0 0 0 0 0 0 0 0 0 0 0 0 0 0 0 0 0
0 0 0 0 0 0 0 0 0 0 0 0 0 0 0 0 0 0 0 0 0 0 0 0 0 0 0 0 0 0 0 0 0 0 0 0 0 0 0 0 0 0 0
0 0 0 0 0 0 0 0 0 0 0 0 0 0 0 0 0 0 0 0 0 0 0 0 0 0 0 0 0 0 0 0 0 0 0 0 0 0 0 0 0 0 0
0 0 0 0 0 0 0 0 0 0 0 0 0 0 0 0 0 0 0 0 0 0 0 0 0 0 0 0 0 0 0 0 0 0 0 0 0 0 0 0 0 0 0
0 0 0 0 0 0 0 0 0 0 0 0 0 0 0 0 0 0 0 0 0 0 0 0 0 0 0 0 0 0 0 0 0 0 0 0 0 0 0 0 0 0 0
0 0 0 0 0 0 0 0 0 0 0 0 0 0 0 0 0 0 0 0 0 0 0 0 0 0 0 0 0 0 0 0 0 0 0 0 0 0 0 0 0 0 0
0 0 0 0 0 0 0 0 0 0 0 0 0 0 0 0 0 0 0 0 0 0 0 0 0 0 0 0 0 0 0 0 0 0 0 0 0 0 0 0 0 0 0
0 0 0 0 0 0 0 0 0 0 0 0 0 0 0 0 0 0 0 0 0 0 0 0 0 0 0 0 0 0 0 0 0 0 0 0 0 0 0 0 0 0 0
Wind_Speed
4 5 5 6 9 9 9 9 10 10 12 13 14 13 13 12 12 11 10 10 10 9 8 8 8 7 5 4 4 4 4 4 4 3 1 1 1 2 1 1 2 1 2
4 4 4 5 7 8 9 10 10 10 11 12 12 13 13 12 12 12 12 11 11 11 10 9 9 7 7 5 5 5 4 4 4 4 2 1 1 2 1 1 2 2 2
3 4 4 4 5 8 8 8 10 10 10 11 12 12 12 12 12 12 11 11 11 11 10 10 9 9 8 6 6 6 4 4 3 3 3 1 1 0 1 2 2 2 3
3 3 4 5 5 6 6 7 8 9 9 10 11 11 11 11 11 11 11 10 10 9 9 9 9 10 9 8 7 6 5 4 3 2 2 1 1 0 0 1 2 2 3
3 3 3 4 4 4 5 7 7 7 7 8 10 10 10 10 10 11 10 10 9 8 7 7 8 9 10 8 6 6 6 4 3 3 2 2 1 1 1 1 2 3 3
4 3 3 2 2 3 4 6 7 7 7 7 8 10 10 9 12 14 11 8 8 9 8 7 7 8 10 10 10 9 8 7 5 4 3 3 3 2 1 1 1 1 3
4 4 3 2 1 3 4 5 7 7 7 7 7 9 10 10 14 15 14 9 8 8 8 7 5 6 8 6 7 7 6 6 7 6 5 4 3 3 2 1 1 2 3
5 4 3 2 2 2 3 5 6 6 7 7 8 8 8 10 14 15 15 10 8 8 8 8 7 7 7 8 7 5 4 3 4 3 4 3 3 3 3 2 2 1 2
5 5 4 3 2 2 3 5 5 5 6 6 7 8 8 10 14 16 15 8 7 7 7 7 8 8 11 12 9 7 5 3 4 6 6 5 5 4 3 2 1 1 1
5 5 5 4 3 3 4 4 3 4 5 5 5 7 8 8 14 16 16 7 7 7 6 7 9 10 13 13 9 9 8 6 5 5 5 4 3 3 3 2 2 1 0
5 5 5 4 4 3 3 3 3 3 4 5 5 5 7 8 13 17 17 8 8 7 6 6 6 12 13 12 9 7 8 8 6 5 4 3 2 1 1 1 1 2 1
5 5 5 4 4 3 3 3 3 4 4 4 5 5 4 6 9 14 17 12 10 8 7 6 7 13 13 12 7 9 12 9 5 4 4 3 2 1 1 0 0 1 1
5 5 5 5 4 3 3 3 3 3 3 4 4 4 4 4 6 11 15 14 12 7 6 9 11 13 12 9 10 13 10 5 5 4 4 3 2 2 1 1 1 2 2
6 6 5 4 4 2 2 2 3 3 4 4 4 4 4 4 4 6 7 8 10 8 7 11 14 12 8 9 9 7 4 4 4 4 4 3 2 2 1 1 0 1 1
6 5 5 4 3 2 1 2 3 4 5 5 4 4 5 5 6 8 7 7 7 7 9 6 6 6 5 5 4 4 4 4 4 3 4 3 3 2 1 1 1 1 0
5 5 4 3 2 1 1 1 2 3 4 5 5 5 4 5 9 10 10 12 13 15 10 7 7 6 6 6 6 5 4 4 4 4 4 3 3 3 2 1 1 1 0
5 5 4 3 2 1 1 1 1 1 1 3 4 6 6 8 10 11 11 14 15 14 7 7 7 7 6 6 5 5 4 4 4 4 4 3 3 3 2 1 1 0 1
5 5 4 3 2 2 2 2 2 2 1 1 2 6 8 9 11 12 13 11 8 6 5 6 7 7 6 6 6 5 5 4 4 4 3 3 3 3 2 2 1 1 0
4 3 3 2 2 1 2 2 2 3 3 2 2 3 7 9 11 12 11 6 7 6 5 5 6 6 6 6 6 5 5 5 4 4 4 3 3 3 2 2 1 1 1
3 5 4 2 2 1 1 2 2 3 3 3 3 4 4 5 5 6 4 3 4 5 5 5 5 6 6 6 6 6 5 5 5 4 3 3 3 3 3 3 2 1 1
2 3 5 3 2 2 2 2 3 3 3 3 3 4 7 5 5 5 4 4 4 5 5 5 5 6 6 6 6 6 6 5 4 4 4 3 3 3 2 2 2 2 1
2 3 3 2 2 2 2 2 3 3 4 4 3 4 7 4 4 4 4 3 3 3 4 5 5 5 5 6 7 7 6 5 5 4 4 3 3 3 3 3 2 2 2
3 3 3 2 2 3 3 2 3 3 3 4 4 4 4 4 4 4 4 4 4 4 4 4 5 4 4 4 5 6 7 6 6 6 5 4 4 4 3 3 3 3 2
3 3 3 3 2 2 2 2 3 3 4 4 4 4 4 4 4 5 4 4 4 4 4 4 5 6 7 5 4 4 4 5 6 6 7 6 5 4 4 3 3 3 3
3 3 3 3 3 2 2 2 3 3 3 3 4 4 4 4 4 5 4 4 5 4 5 4 4 6 7 7 6 5 9 10 9 7 6 6 6 5 5 5 4 3 3
3 3 3 3 3 3 3 3 3 3 3 3 4 4 5 5 5 5 5 5 5 4 5 4 5 6 7 6 8 10 12 12 12 12 7 6 6 5 5 4 5 4 4
Wind_Direction
237 225 220 217 206 198 194 197 194 188 181 181 183 185 188 189 188 189 191 188 191 192 191 194 198 189 187 188 185 188 195 189 222 246 225 195 190 197 233 246 252 257 277
252 246 224 225 210 201 201 198 193 192 187 182 182 184 188 189 189 190 193 192 193 195 194 193 197 190 193 189 188 195 199 195 201 230 233 220 220 200 222 261 290 295 273
264 241 227 218 209 204 206 203 194 191 189 186 183 187 187 188 190 192 193 194 197 197 194 194 194 190 197 191 188 194 198 197 195 205 227 215 195 141 312 294 297 296 298
292 251 236 216 210 210 210 204 195 191 191 192 187 187 187 187 189 191 192 193 195 197 195 193 190 192 194 188 190 193 185 183 185 193 214 215 205 189 186 282 301 302 302
304 289 260 236 217 209 211 204 195 192 192 190 187 184 184 187 190 188 189 188 187 189 191 193 191 186 184 183 184 183 177 181 179 188 207 207 208 184 237 245 274 302 296
323 307 294 264 228 213 218 199 191 193 189 188 192 185 186 190 186 182 180 181 183 184 188 187 183 182 182 181 178 174 175 181 188 190 202 212 219 209 196 236 279 321 294
318 309 313 305 273 232 220 201 192 193 189 191 194 190 191 188 178 176 177 180 184 186 184 180 177 174 169 165 160 154 163 176 181 183 195 206 197 197 181 211 246 259 257
317 310 314 296 270 261 221 207 200 192 192 194 194 194 192 186 176 175 174 180 183 186 183 180 176 171 167 157 150 149 154 161 169 172 172 171 162 161 170 190 214 263 293
318 313 308 296 281 276 242 213 204 194 194 196 193 190 191 186 176 173 172 183 181 182 178 175 173 172 167 156 155 155 151 142 117 121 121 120 116 112 113 109 93 32 303
311 306 303 301 279 263 249 228 212 198 195 191 194 191 189 189 178 174 172 180 179 176 172 173 171 169 168 161 165 166 169 167 145 130 118 104 103 95 85 127 163 161 294
308 305 302 294 275 264 251 237 210 194 187 188 188 188 187 187 178 176 175 179 178 175 175 172 172 164 166 166 166 174 169 153 150 145 137 130 116 104 88 84 134 170 185
310 307 299 294 283 273 238 231 211 189 184 186 182 180 182 179 178 180 179 179 170 172 175 169 166 160 159 160 159 151 144 140 142 142 142 148 152 160 160 121 92 93 166
314 311 304 299 290 266 230 220 204 189 185 184 179 178 176 174 172 175 177 173 164 162 161 156 151 150 148 149 147 145 143 144 149 151 160 169 167 164 137 88 53 48 22
308 306 301 296 293 269 239 220 204 194 190 184 181 180 176 171 163 162 165 159 149 141 138 138 137 137 133 135 139 142 147 153 155 159 155 146 135 131 128 124 115 15 15
303 302 300 296 292 267 257 235 217 209 198 192 191 187 183 187 180 167 163 159 156 148 139 134 137 141 142 143 140 137 140 145 144 144 145 145 144 140 140 136 120 89 26
298 298 297 296 289 267 254 293 253 211 198 196 194 192 190 177 164 164 160 153 148 147 143 150 156 157 158 157 153 151 151 155 154 148 150 153 153 155 149 125 91 115 300
286 288 291 290 277 273 245 215 247 19 128 174 176 174 168 161 160 157 152 150 152 150 149 158 162 162 159 158 158 160 163 159 153 151 153 152 150 152 149 147 128 70 348
282 282 283 278 260 252 246 229 197 179 181 167 160 160 156 156 152 148 143 141 150 153 155 158 161 160 160 160 161 159 152 149 149 149 150 152 156 157 154 157 160 171 282
278 278 278 274 268 253 243 233 202 181 175 165 137 145 151 148 145 146 146 154 159 159 158 157 157 157 157 156 154 154 154 155 154 153 153 154 161 158 156 159 159 140 80
270 279 282 271 262 250 235 228 201 179 172 171 170 159 148 146 148 152 149 150 154 153 155 153 151 151 151 152 151 150 150 151 152 152 154 157 161 159 155 154 153 155 169
262 272 277 269 255 247 233 218 197 181 179 177 176 170 165 163 160 159 157 153 155 154 153 151 148 150 152 152 151 151 153 156 155 153 153 157 157 151 146 143 139 132 113
255 260 254 245 247 246 241 217 192 182 176 169 162 156 155 149 148 148 144 144 143 144 146 144 146 152 159 160 157 156 157 157 156 152 150 153 149 142 136 132 126 125 113
242 248 251 242 238 246 248 212 188 179 174 163 159 154 152 148 147 146 142 138 135 134 138 140 141 144 145 147 153 159 161 164 163 158 152 150 146 141 138 136 133 132 126
233 238 241 236 225 223 223 206 187 180 167 157 158 155 150 147 142 139 137 135 133 132 133 137 142 147 145 143 143 144 144 143 145 150 149 147 143 139 136 132 132 134 130
233 235 236 232 222 213 211 201 184 173 164 158 156 149 142 140 139 136 133 133 134 136 133 131 135 140 145 144 145 146 144 140 141 140 138 136 135 133 133 130 128 123 111
228 232 232 226 216 204 201 197 184 172 164 162 155 150 147 145 144 140 137 136 135 134 133 131 136 141 142 142 143 143 144 144 141 136 132 130 129 128 128 125 124 121 118